7 * 24
多渠道服务支持
NINGXIA-1 10 是由中国宁夏回族自治区研制的一颗遥感卫星,主要用于地球观测、资源调查和环境监测等领域。该卫星具备高分辨率成像能力,能够提供清晰的地表图像,支持农业、林业、城市规划和灾害预警等应用。作为宁夏在航天领域的重要成果,NINGXIA-1 10 有助于提升区域遥感数据获取能力和信息化水平,推动地方经济发展与科技创新。
中国
(CN)
| 数据来源 | 国际轨道数据 |
| 星历时间: | 2025-10-29T00:53:24+0800 16小时前 查看轨道信息 |
| 半长轴: | 7242.741km |
| 偏心率: | 0.0008357 |
| 轨道倾角: | 44.998° |
| 近地点辐角 | 237.756° |
| 升交点赤经 | 192.213° |
| 平近点角 | 122.247° |
| 近地点: | 858.553km |
| 远地点: | 870.659km |
| 周期: | 102.238分钟 |
| 每日圈数: | 14.084725 |